Mt. Pocono, PA

3:54 PM EST on December 11, 2019 (GMT -0500)
Pocono Mountains Municipal

Weather History for KMPO - October, 2019

Change the Weather History Date:

Wednesday, October 9, 2019

  Actual Average Record
Temperature  
Mean Temperature 49 °F 50 °F  
Max Temperature 52 °F 60 °F 82 °F (1942)
Min Temperature 46 °F 41 °F 20 °F (1916)
Degree Days  
Heating Degree Days 16 15  
Month to date heating degree days 100 123  
Since 1 July heating degree days 278 391  
Cooling Degree Days 0 0  
Month to date cooling degree days 5 0  
Year to date cooling degree days 348 313  
Moisture  
Dew Point 41 °F    
Average Humidity 73    
Maximum Humidity 83    
Minimum Humidity 68    
Precipitation  
Precipitation 0.01 in 0.12 in 3.52 in (1903)
Month to date precipitation 1.39 1.38  
Year to date precipitation 37.61 37.72  
Sea Level Pressure  
Sea Level Pressure 30.29 in    
Wind  
Wind Speed 8 mph ()    
Max Wind Speed 16 mph    
Max Gust Speed 23 mph    
Visibility 10.0 miles    
Events Rain    
T = Trace of Precipitation, MM = Missing Value Source: Averaged Metar Reports

Daily Weather History Graph

Daily Weather History Graph

Search for Another Location

Airport or City:

Astronomy

Oct. 09, 2019 Rise Set
Actual Time 7:06 AM EDT 6:30 PM EDT
Civil Twilight 6:38 AM EDT 6:58 PM EDT
Nautical Twilight 6:06 AM EDT 7:30 PM EDT
Astronomical Twilight 5:34 AM EDT 8:01 PM EDT
Moon 5:04 PM EDT (10/9) 2:47 AM EDT (10/9)
Length of Visible Light 12h 19m
Length of Day
11h 24m
Waxing Gibbous, 85% of the Moon is Illuminated
Oct 9
Waxing Gibbous
Oct 13
Full
Oct 21
Last Quarter
Oct 27
New
Nov 4
First Quarter

Hourly Weather History & Observations

Time (EDT) Temp. Dew Point Humidity Pressure Visibility Wind Dir Wind Speed Gust Speed Precip Events Conditions
12:53 AM 50.0 °F 42.1 °F 74% 30.27 in 10.0 mi NE 8.1 mph - N/A   Clear
1:53 AM 50.0 °F 41.0 °F 71% 30.25 in 10.0 mi NE 10.4 mph 18.4 mph N/A   Scattered Clouds
2:53 AM 48.9 °F 39.9 °F 71% 30.26 in 10.0 mi NE 8.1 mph - N/A   Clear
3:53 AM 48.9 °F 41.0 °F 74% 30.25 in 10.0 mi NE 11.5 mph 17.3 mph N/A   Clear
4:53 AM 48.9 °F 41.0 °F 74% 30.25 in 10.0 mi NE 16.1 mph 23.0 mph N/A   Mostly Cloudy
5:53 AM 48.9 °F 41.0 °F 74% 30.28 in 10.0 mi NNE 5.8 mph - N/A   Clear
6:53 AM 48.9 °F 41.0 °F 74% 30.29 in 10.0 mi NE 8.1 mph - N/A   Overcast
7:53 AM 48.9 °F 41.0 °F 74% 30.30 in 10.0 mi ENE 9.2 mph - N/A   Mostly Cloudy
8:53 AM 48.9 °F 39.9 °F 71% 30.31 in 10.0 mi NE 10.4 mph 18.4 mph N/A   Mostly Cloudy
9:53 AM 50.0 °F 41.0 °F 71% 30.32 in 10.0 mi NE 8.1 mph - N/A   Mostly Cloudy
10:53 AM 50.0 °F 41.0 °F 71% 30.32 in 10.0 mi ENE 9.2 mph - N/A   Mostly Cloudy
11:53 AM 51.1 °F 41.0 °F 68% 30.32 in 10.0 mi ENE 10.4 mph 20.7 mph N/A   Partly Cloudy
12:53 PM 52.0 °F 42.1 °F 69% 30.30 in 10.0 mi ENE 9.2 mph - N/A   Overcast
1:53 PM 51.1 °F 42.1 °F 71% 30.30 in 10.0 mi ENE 9.2 mph - N/A   Overcast
2:53 PM 50.0 °F 42.1 °F 74% 30.30 in 10.0 mi ENE 4.6 mph - 0.00 in Rain Light Rain
3:53 PM 50.0 °F 45.0 °F 83% 30.28 in 10.0 mi NE 3.5 mph - 0.01 in   Overcast
4:53 PM 51.1 °F 43.0 °F 74% 30.28 in 10.0 mi NE 6.9 mph - N/A   Overcast
5:53 PM 51.1 °F 42.1 °F 71% 30.29 in 10.0 mi NE 9.2 mph - N/A   Overcast
6:53 PM 48.9 °F 42.1 °F 77% 30.29 in 10.0 mi NE 5.8 mph - N/A   Overcast
7:53 PM 48.0 °F 41.0 °F 77% 30.30 in 10.0 mi NE 11.5 mph 18.4 mph N/A   Overcast
8:53 PM 46.9 °F 39.9 °F 77% 30.30 in 10.0 mi NE 8.1 mph - N/A   Overcast
9:53 PM 48.0 °F 39.9 °F 74% 30.30 in 10.0 mi NE 8.1 mph - N/A   Overcast
10:53 PM 48.0 °F 39.0 °F 71% 30.30 in 10.0 mi NE 10.4 mph 17.3 mph N/A   Overcast